Index of /20260426/WXO-DD/model_rdps/10km/18/057
Name Last modified Size Description
Parent Directory -
20260426T18Z_MSC_RDPS_AbsoluteVorticity_IsbL-0250_RLatLon0.09_PT057H.grib2 2026-04-26 21:37 632K
20260426T18Z_MSC_RDPS_AbsoluteVorticity_IsbL-0500_RLatLon0.09_PT057H.grib2 2026-04-26 21:37 574K
20260426T18Z_MSC_RDPS_AbsoluteVorticity_IsbL-0700_RLatLon0.09_PT057H.grib2 2026-04-26 21:37 620K
20260426T18Z_MSC_RDPS_AbsoluteVorticity_IsbL-0850_RLatLon0.09_PT057H.grib2 2026-04-26 21:37 769K
20260426T18Z_MSC_RDPS_AirTemp_AGL-120m_RLatLon0.09_PT057H.grib2 2026-04-26 21:37 383K
20260426T18Z_MSC_RDPS_AirTemp_AGL-2m_RLatLon0.09_PT057H.grib2 2026-04-26 21:37 619K
20260426T18Z_MSC_RDPS_AirTemp_AGL-40m_RLatLon0.09_PT057H.grib2 2026-04-26 21:37 395K
20260426T18Z_MSC_RDPS_AirTemp_AGL-80m_RLatLon0.09_PT057H.grib2 2026-04-26 21:37 387K
20260426T18Z_MSC_RDPS_AirTemp_IsbL-0001_RLatLon0.09_PT057H.grib2 2026-04-26 21:37 257K
20260426T18Z_MSC_RDPS_AirTemp_IsbL-0005_RLatLon0.09_PT057H.grib2 2026-04-26 21:37 296K
20260426T18Z_MSC_RDPS_AirTemp_IsbL-0010_RLatLon0.09_PT057H.grib2 2026-04-26 21:37 304K
20260426T18Z_MSC_RDPS_AirTemp_IsbL-0020_RLatLon0.09_PT057H.grib2 2026-04-26 21:37 318K
20260426T18Z_MSC_RDPS_AirTemp_IsbL-0030_RLatLon0.09_PT057H.grib2 2026-04-26 21:37 340K
20260426T18Z_MSC_RDPS_AirTemp_IsbL-0050_RLatLon0.09_PT057H.grib2 2026-04-26 21:37 317K
20260426T18Z_MSC_RDPS_AirTemp_IsbL-0100_RLatLon0.09_PT057H.grib2 2026-04-26 21:37 435K
20260426T18Z_MSC_RDPS_AirTemp_IsbL-0150_RLatLon0.09_PT057H.grib2 2026-04-26 21:37 435K
20260426T18Z_MSC_RDPS_AirTemp_IsbL-0175_RLatLon0.09_PT057H.grib2 2026-04-26 21:37 423K
20260426T18Z_MSC_RDPS_AirTemp_IsbL-0200_RLatLon0.09_PT057H.grib2 2026-04-26 21:37 425K
20260426T18Z_MSC_RDPS_AirTemp_IsbL-0225_RLatLon0.09_PT057H.grib2 2026-04-26 21:37 427K
20260426T18Z_MSC_RDPS_AirTemp_IsbL-0250_RLatLon0.09_PT057H.grib2 2026-04-26 21:37 437K
20260426T18Z_MSC_RDPS_AirTemp_IsbL-0275_RLatLon0.09_PT057H.grib2 2026-04-26 21:37 417K
20260426T18Z_MSC_RDPS_AirTemp_IsbL-0300_RLatLon0.09_PT057H.grib2 2026-04-26 21:37 422K
20260426T18Z_MSC_RDPS_AirTemp_IsbL-0350_RLatLon0.09_PT057H.grib2 2026-04-26 21:37 431K
20260426T18Z_MSC_RDPS_AirTemp_IsbL-0400_RLatLon0.09_PT057H.grib2 2026-04-26 21:37 432K
20260426T18Z_MSC_RDPS_AirTemp_IsbL-0450_RLatLon0.09_PT057H.grib2 2026-04-26 21:37 403K
20260426T18Z_MSC_RDPS_AirTemp_IsbL-0500_RLatLon0.09_PT057H.grib2 2026-04-26 21:37 412K
20260426T18Z_MSC_RDPS_AirTemp_IsbL-0550_RLatLon0.09_PT057H.grib2 2026-04-26 21:37 431K
20260426T18Z_MSC_RDPS_AirTemp_IsbL-0600_RLatLon0.09_PT057H.grib2 2026-04-26 21:37 446K
20260426T18Z_MSC_RDPS_AirTemp_IsbL-0650_RLatLon0.09_PT057H.grib2 2026-04-26 21:37 460K
20260426T18Z_MSC_RDPS_AirTemp_IsbL-0700_RLatLon0.09_PT057H.grib2 2026-04-26 21:37 484K
20260426T18Z_MSC_RDPS_AirTemp_IsbL-0750_RLatLon0.09_PT057H.grib2 2026-04-26 21:37 406K
20260426T18Z_MSC_RDPS_AirTemp_IsbL-0800_RLatLon0.09_PT057H.grib2 2026-04-26 21:37 444K
20260426T18Z_MSC_RDPS_AirTemp_IsbL-0850_RLatLon0.09_PT057H.grib2 2026-04-26 21:37 496K
20260426T18Z_MSC_RDPS_AirTemp_IsbL-0875_RLatLon0.09_PT057H.grib2 2026-04-26 21:37 515K
20260426T18Z_MSC_RDPS_AirTemp_IsbL-0900_RLatLon0.09_PT057H.grib2 2026-04-26 21:37 523K
20260426T18Z_MSC_RDPS_AirTemp_IsbL-0925_RLatLon0.09_PT057H.grib2 2026-04-26 21:37 519K
20260426T18Z_MSC_RDPS_AirTemp_IsbL-0950_RLatLon0.09_PT057H.grib2 2026-04-26 21:37 519K
20260426T18Z_MSC_RDPS_AirTemp_IsbL-0970_RLatLon0.09_PT057H.grib2 2026-04-26 21:37 511K
20260426T18Z_MSC_RDPS_AirTemp_IsbL-0985_RLatLon0.09_PT057H.grib2 2026-04-26 21:37 498K
20260426T18Z_MSC_RDPS_AirTemp_IsbL-1000_RLatLon0.09_PT057H.grib2 2026-04-26 21:37 494K
20260426T18Z_MSC_RDPS_AirTemp_IsbL-1015_RLatLon0.09_PT057H.grib2 2026-04-26 21:37 494K
20260426T18Z_MSC_RDPS_Albedo_Sfc_RLatLon0.09_PT057H.grib2 2026-04-26 21:37 164K
20260426T18Z_MSC_RDPS_CAPE_Sfc_RLatLon0.09_PT057H.grib2 2026-04-26 21:37 1.6M
20260426T18Z_MSC_RDPS_CIN_Sfc_RLatLon0.09_PT057H.grib2 2026-04-26 21:37 1.1M
20260426T18Z_MSC_RDPS_CloudWater_EAtm_RLatLon0.09_PT057H.grib2 2026-04-26 21:37 219K
20260426T18Z_MSC_RDPS_ConvectivePrecip-Accum_Sfc_RLatLon0.09_PT057H.grib2 2026-04-26 21:37 1.2M
20260426T18Z_MSC_RDPS_DewPointDepression_AGL-2m_RLatLon0.09_PT057H.grib2 2026-04-26 21:37 393K
20260426T18Z_MSC_RDPS_DewPointDepression_IsbL-0001_RLatLon0.09_PT057H.grib2 2026-04-26 21:37 193
20260426T18Z_MSC_RDPS_DewPointDepression_IsbL-0005_RLatLon0.09_PT057H.grib2 2026-04-26 21:37 193
20260426T18Z_MSC_RDPS_DewPointDepression_IsbL-0010_RLatLon0.09_PT057H.grib2 2026-04-26 21:37 193
20260426T18Z_MSC_RDPS_DewPointDepression_IsbL-0020_RLatLon0.09_PT057H.grib2 2026-04-26 21:37 193
20260426T18Z_MSC_RDPS_DewPointDepression_IsbL-0030_RLatLon0.09_PT057H.grib2 2026-04-26 21:37 193
20260426T18Z_MSC_RDPS_DewPointDepression_IsbL-0050_RLatLon0.09_PT057H.grib2 2026-04-26 21:37 95K
20260426T18Z_MSC_RDPS_DewPointDepression_IsbL-0100_RLatLon0.09_PT057H.grib2 2026-04-26 21:37 131K
20260426T18Z_MSC_RDPS_DewPointDepression_IsbL-0150_RLatLon0.09_PT057H.grib2 2026-04-26 21:37 155K
20260426T18Z_MSC_RDPS_DewPointDepression_IsbL-0175_RLatLon0.09_PT057H.grib2 2026-04-26 21:37 184K
20260426T18Z_MSC_RDPS_DewPointDepression_IsbL-0200_RLatLon0.09_PT057H.grib2 2026-04-26 21:37 221K
20260426T18Z_MSC_RDPS_DewPointDepression_IsbL-0225_RLatLon0.09_PT057H.grib2 2026-04-26 21:37 269K
20260426T18Z_MSC_RDPS_DewPointDepression_IsbL-0250_RLatLon0.09_PT057H.grib2 2026-04-26 21:37 306K
20260426T18Z_MSC_RDPS_DewPointDepression_IsbL-0275_RLatLon0.09_PT057H.grib2 2026-04-26 21:37 310K
20260426T18Z_MSC_RDPS_DewPointDepression_IsbL-0300_RLatLon0.09_PT057H.grib2 2026-04-26 21:37 327K
20260426T18Z_MSC_RDPS_DewPointDepression_IsbL-0350_RLatLon0.09_PT057H.grib2 2026-04-26 21:37 331K
20260426T18Z_MSC_RDPS_DewPointDepression_IsbL-0400_RLatLon0.09_PT057H.grib2 2026-04-26 21:37 339K
20260426T18Z_MSC_RDPS_DewPointDepression_IsbL-0450_RLatLon0.09_PT057H.grib2 2026-04-26 21:37 348K
20260426T18Z_MSC_RDPS_DewPointDepression_IsbL-0500_RLatLon0.09_PT057H.grib2 2026-04-26 21:37 358K
20260426T18Z_MSC_RDPS_DewPointDepression_IsbL-0550_RLatLon0.09_PT057H.grib2 2026-04-26 21:37 370K
20260426T18Z_MSC_RDPS_DewPointDepression_IsbL-0600_RLatLon0.09_PT057H.grib2 2026-04-26 21:37 377K
20260426T18Z_MSC_RDPS_DewPointDepression_IsbL-0650_RLatLon0.09_PT057H.grib2 2026-04-26 21:37 381K
20260426T18Z_MSC_RDPS_DewPointDepression_IsbL-0700_RLatLon0.09_PT057H.grib2 2026-04-26 21:37 395K
20260426T18Z_MSC_RDPS_DewPointDepression_IsbL-0750_RLatLon0.09_PT057H.grib2 2026-04-26 21:37 414K
20260426T18Z_MSC_RDPS_DewPointDepression_IsbL-0800_RLatLon0.09_PT057H.grib2 2026-04-26 21:37 439K
20260426T18Z_MSC_RDPS_DewPointDepression_IsbL-0850_RLatLon0.09_PT057H.grib2 2026-04-26 21:37 466K
20260426T18Z_MSC_RDPS_DewPointDepression_IsbL-0875_RLatLon0.09_PT057H.grib2 2026-04-26 21:37 468K
20260426T18Z_MSC_RDPS_DewPointDepression_IsbL-0900_RLatLon0.09_PT057H.grib2 2026-04-26 21:37 463K
20260426T18Z_MSC_RDPS_DewPointDepression_IsbL-0925_RLatLon0.09_PT057H.grib2 2026-04-26 21:37 450K
20260426T18Z_MSC_RDPS_DewPointDepression_IsbL-0950_RLatLon0.09_PT057H.grib2 2026-04-26 21:37 439K
20260426T18Z_MSC_RDPS_DewPointDepression_IsbL-0970_RLatLon0.09_PT057H.grib2 2026-04-26 21:37 427K
20260426T18Z_MSC_RDPS_DewPointDepression_IsbL-0985_RLatLon0.09_PT057H.grib2 2026-04-26 21:37 420K
20260426T18Z_MSC_RDPS_DewPointDepression_IsbL-1000_RLatLon0.09_PT057H.grib2 2026-04-26 21:37 414K
20260426T18Z_MSC_RDPS_DewPointDepression_IsbL-1015_RLatLon0.09_PT057H.grib2 2026-04-26 21:37 406K
20260426T18Z_MSC_RDPS_DewPoint_AGL-2m_RLatLon0.09_PT057H.grib2 2026-04-26 21:37 302K
20260426T18Z_MSC_RDPS_DownwardLongwaveRadiationFlux-Accum_Sfc_RLatLon0.09_PT057H.grib2 2026-04-26 21:37 393K
20260426T18Z_MSC_RDPS_DownwardShortwaveRadiationFlux-Accum_NTAtm_RLatLon0.09_PT057H.grib2 2026-04-26 21:37 102K
20260426T18Z_MSC_RDPS_DownwardShortwaveRadiationFlux-Accum_Sfc_RLatLon0.09_PT057H.grib2 2026-04-26 21:37 599K
20260426T18Z_MSC_RDPS_FreezingRain-Accum1h_Sfc_RLatLon0.09_PT057H.grib2 2026-04-26 21:37 21K
20260426T18Z_MSC_RDPS_FreezingRain-Accum3h_Sfc_RLatLon0.09_PT057H.grib2 2026-04-26 21:37 23K
20260426T18Z_MSC_RDPS_FreezingRain-Accum_Sfc_RLatLon0.09_PT057H.grib2 2026-04-26 21:37 173K
20260426T18Z_MSC_RDPS_GeopotentialHeight_IsbL-0001_RLatLon0.09_PT057H.grib2 2026-04-26 21:37 270K
20260426T18Z_MSC_RDPS_GeopotentialHeight_IsbL-0005_RLatLon0.09_PT057H.grib2 2026-04-26 21:37 336K
20260426T18Z_MSC_RDPS_GeopotentialHeight_IsbL-0010_RLatLon0.09_PT057H.grib2 2026-04-26 21:37 337K
20260426T18Z_MSC_RDPS_GeopotentialHeight_IsbL-0020_RLatLon0.09_PT057H.grib2 2026-04-26 21:37 303K
20260426T18Z_MSC_RDPS_GeopotentialHeight_IsbL-0030_RLatLon0.09_PT057H.grib2 2026-04-26 21:37 304K
20260426T18Z_MSC_RDPS_GeopotentialHeight_IsbL-0050_RLatLon0.09_PT057H.grib2 2026-04-26 21:37 339K
20260426T18Z_MSC_RDPS_GeopotentialHeight_IsbL-0100_RLatLon0.09_PT057H.grib2 2026-04-26 21:37 288K
20260426T18Z_MSC_RDPS_GeopotentialHeight_IsbL-0150_RLatLon0.09_PT057H.grib2 2026-04-26 21:37 230K
20260426T18Z_MSC_RDPS_GeopotentialHeight_IsbL-0175_RLatLon0.09_PT057H.grib2 2026-04-26 21:37 264K
20260426T18Z_MSC_RDPS_GeopotentialHeight_IsbL-0200_RLatLon0.09_PT057H.grib2 2026-04-26 21:37 267K
20260426T18Z_MSC_RDPS_GeopotentialHeight_IsbL-0225_RLatLon0.09_PT057H.grib2 2026-04-26 21:37 268K
20260426T18Z_MSC_RDPS_GeopotentialHeight_IsbL-0250_RLatLon0.09_PT057H.grib2 2026-04-26 21:37 269K
20260426T18Z_MSC_RDPS_GeopotentialHeight_IsbL-0275_RLatLon0.09_PT057H.grib2 2026-04-26 21:37 267K
20260426T18Z_MSC_RDPS_GeopotentialHeight_IsbL-0300_RLatLon0.09_PT057H.grib2 2026-04-26 21:37 267K
20260426T18Z_MSC_RDPS_GeopotentialHeight_IsbL-0350_RLatLon0.09_PT057H.grib2 2026-04-26 21:37 234K
20260426T18Z_MSC_RDPS_GeopotentialHeight_IsbL-0400_RLatLon0.09_PT057H.grib2 2026-04-26 21:37 230K
20260426T18Z_MSC_RDPS_GeopotentialHeight_IsbL-0450_RLatLon0.09_PT057H.grib2 2026-04-26 21:37 298K
20260426T18Z_MSC_RDPS_GeopotentialHeight_IsbL-0500_RLatLon0.09_PT057H.grib2 2026-04-26 21:37 294K
20260426T18Z_MSC_RDPS_GeopotentialHeight_IsbL-0550_RLatLon0.09_PT057H.grib2 2026-04-26 21:37 289K
20260426T18Z_MSC_RDPS_GeopotentialHeight_IsbL-0600_RLatLon0.09_PT057H.grib2 2026-04-26 21:37 286K
20260426T18Z_MSC_RDPS_GeopotentialHeight_IsbL-0650_RLatLon0.09_PT057H.grib2 2026-04-26 21:37 255K
20260426T18Z_MSC_RDPS_GeopotentialHeight_IsbL-0700_RLatLon0.09_PT057H.grib2 2026-04-26 21:37 253K
20260426T18Z_MSC_RDPS_GeopotentialHeight_IsbL-0750_RLatLon0.09_PT057H.grib2 2026-04-26 21:37 336K
20260426T18Z_MSC_RDPS_GeopotentialHeight_IsbL-0800_RLatLon0.09_PT057H.grib2 2026-04-26 21:37 342K
20260426T18Z_MSC_RDPS_GeopotentialHeight_IsbL-0850_RLatLon0.09_PT057H.grib2 2026-04-26 21:37 351K
20260426T18Z_MSC_RDPS_GeopotentialHeight_IsbL-0875_RLatLon0.09_PT057H.grib2 2026-04-26 21:37 353K
20260426T18Z_MSC_RDPS_GeopotentialHeight_IsbL-0900_RLatLon0.09_PT057H.grib2 2026-04-26 21:37 359K
20260426T18Z_MSC_RDPS_GeopotentialHeight_IsbL-0925_RLatLon0.09_PT057H.grib2 2026-04-26 21:37 360K
20260426T18Z_MSC_RDPS_GeopotentialHeight_IsbL-0950_RLatLon0.09_PT057H.grib2 2026-04-26 21:37 366K
20260426T18Z_MSC_RDPS_GeopotentialHeight_IsbL-0970_RLatLon0.09_PT057H.grib2 2026-04-26 21:37 371K
20260426T18Z_MSC_RDPS_GeopotentialHeight_IsbL-0985_RLatLon0.09_PT057H.grib2 2026-04-26 21:37 378K
20260426T18Z_MSC_RDPS_GeopotentialHeight_IsbL-1000_RLatLon0.09_PT057H.grib2 2026-04-26 21:37 389K
20260426T18Z_MSC_RDPS_GeopotentialHeight_IsbL-1015_RLatLon0.09_PT057H.grib2 2026-04-26 21:37 402K
20260426T18Z_MSC_RDPS_Humidex_Sfc_RLatLon0.09_PT057H.grib2 2026-04-26 21:37 2.4M
20260426T18Z_MSC_RDPS_IcePellets-Accum1h_Sfc_RLatLon0.09_PT057H.grib2 2026-04-26 21:37 4.1K
20260426T18Z_MSC_RDPS_IcePellets-Accum3h_Sfc_RLatLon0.09_PT057H.grib2 2026-04-26 21:37 4.4K
20260426T18Z_MSC_RDPS_IcePellets-Accum_Sfc_RLatLon0.09_PT057H.grib2 2026-04-26 21:37 30K
20260426T18Z_MSC_RDPS_KIndex_Sfc_RLatLon0.09_PT057H.grib2 2026-04-26 21:37 2.5M
20260426T18Z_MSC_RDPS_LatentHeatNetFlux_Sfc_RLatLon0.09_PT057H.grib2 2026-04-26 21:37 401K
20260426T18Z_MSC_RDPS_LiftedIndex-MU-VT_IsbL-0500_RLatLon0.09_PT057H.grib2 2026-04-26 21:37 2.4M
20260426T18Z_MSC_RDPS_NetLongwaveRadiationFlux-Accum_Sfc_RLatLon0.09_PT057H.grib2 2026-04-26 21:37 579K
20260426T18Z_MSC_RDPS_NetShortwaveRadiationFlux-Accum_Sfc_RLatLon0.09_PT057H.grib2 2026-04-26 21:37 601K
20260426T18Z_MSC_RDPS_PlanetaryBoundaryLayerHeight_Sfc_RLatLon0.09_PT057H.grib2 2026-04-26 21:37 1.1M
20260426T18Z_MSC_RDPS_Precip-Accum1h_Sfc_RLatLon0.09_PT057H.grib2 2026-04-26 21:37 1.2M
20260426T18Z_MSC_RDPS_Precip-Accum3h_Sfc_RLatLon0.09_PT057H.grib2 2026-04-26 21:37 1.3M
20260426T18Z_MSC_RDPS_Precip-Accum_Sfc_RLatLon0.09_PT057H.grib2 2026-04-26 21:37 2.1M
20260426T18Z_MSC_RDPS_PrecipRate_Sfc_RLatLon0.09_PT057H.grib2 2026-04-26 21:37 168K
20260426T18Z_MSC_RDPS_PrecipType-Instant_Sfc_RLatLon0.09_PT057H.grib2 2026-04-26 21:37 533K
20260426T18Z_MSC_RDPS_Pressure-Trend3h_Sfc_RLatLon0.09_PT057H.grib2 2026-04-26 21:37 1.2M
20260426T18Z_MSC_RDPS_Pressure_MSL_RLatLon0.09_PT057H.grib2 2026-04-26 21:37 323K
20260426T18Z_MSC_RDPS_Pressure_PVU-1.5_RLatLon0.09_PT057H.grib2 2026-04-26 21:37 2.5M
20260426T18Z_MSC_RDPS_Pressure_PVU-1_RLatLon0.09_PT057H.grib2 2026-04-26 21:37 2.4M
20260426T18Z_MSC_RDPS_Pressure_PVU-2_RLatLon0.09_PT057H.grib2 2026-04-26 21:37 2.4M
20260426T18Z_MSC_RDPS_Pressure_Sfc_RLatLon0.09_PT057H.grib2 2026-04-26 21:37 499K
20260426T18Z_MSC_RDPS_RadiativeTemp_Sfc_RLatLon0.09_PT057H.grib2 2026-04-26 21:37 299K
20260426T18Z_MSC_RDPS_Rain-Accum1h_Sfc_RLatLon0.09_PT057H.grib2 2026-04-26 21:37 570K
20260426T18Z_MSC_RDPS_Rain-Accum3h_Sfc_RLatLon0.09_PT057H.grib2 2026-04-26 21:37 661K
20260426T18Z_MSC_RDPS_Rain-Accum_Sfc_RLatLon0.09_PT057H.grib2 2026-04-26 21:37 1.6M
20260426T18Z_MSC_RDPS_RelativeHumidity_AGL-2m_RLatLon0.09_PT057H.grib2 2026-04-26 21:37 1.0M
20260426T18Z_MSC_RDPS_RelativeHumidity_IsbL-0010_RLatLon0.09_PT057H.grib2 2026-04-26 21:37 620K
20260426T18Z_MSC_RDPS_RelativeHumidity_IsbL-0020_RLatLon0.09_PT057H.grib2 2026-04-26 21:37 644K
20260426T18Z_MSC_RDPS_RelativeHumidity_IsbL-0030_RLatLon0.09_PT057H.grib2 2026-04-26 21:37 539K
20260426T18Z_MSC_RDPS_RelativeHumidity_IsbL-0050_RLatLon0.09_PT057H.grib2 2026-04-26 21:37 253K
20260426T18Z_MSC_RDPS_RelativeHumidity_IsbL-0100_RLatLon0.09_PT057H.grib2 2026-04-26 21:37 282K
20260426T18Z_MSC_RDPS_RelativeHumidity_IsbL-0150_RLatLon0.09_PT057H.grib2 2026-04-26 21:37 427K
20260426T18Z_MSC_RDPS_RelativeHumidity_IsbL-0175_RLatLon0.09_PT057H.grib2 2026-04-26 21:37 494K
20260426T18Z_MSC_RDPS_RelativeHumidity_IsbL-0200_RLatLon0.09_PT057H.grib2 2026-04-26 21:37 562K
20260426T18Z_MSC_RDPS_RelativeHumidity_IsbL-0225_RLatLon0.09_PT057H.grib2 2026-04-26 21:37 629K
20260426T18Z_MSC_RDPS_RelativeHumidity_IsbL-0250_RLatLon0.09_PT057H.grib2 2026-04-26 21:37 694K
20260426T18Z_MSC_RDPS_RelativeHumidity_IsbL-0275_RLatLon0.09_PT057H.grib2 2026-04-26 21:37 722K
20260426T18Z_MSC_RDPS_RelativeHumidity_IsbL-0300_RLatLon0.09_PT057H.grib2 2026-04-26 21:37 765K
20260426T18Z_MSC_RDPS_RelativeHumidity_IsbL-0350_RLatLon0.09_PT057H.grib2 2026-04-26 21:37 781K
20260426T18Z_MSC_RDPS_RelativeHumidity_IsbL-0400_RLatLon0.09_PT057H.grib2 2026-04-26 21:37 790K
20260426T18Z_MSC_RDPS_RelativeHumidity_IsbL-0450_RLatLon0.09_PT057H.grib2 2026-04-26 21:37 797K
20260426T18Z_MSC_RDPS_RelativeHumidity_IsbL-0500_RLatLon0.09_PT057H.grib2 2026-04-26 21:37 806K
20260426T18Z_MSC_RDPS_RelativeHumidity_IsbL-0550_RLatLon0.09_PT057H.grib2 2026-04-26 21:37 823K
20260426T18Z_MSC_RDPS_RelativeHumidity_IsbL-0600_RLatLon0.09_PT057H.grib2 2026-04-26 21:37 837K
20260426T18Z_MSC_RDPS_RelativeHumidity_IsbL-0650_RLatLon0.09_PT057H.grib2 2026-04-26 21:37 848K
20260426T18Z_MSC_RDPS_RelativeHumidity_IsbL-0700_RLatLon0.09_PT057H.grib2 2026-04-26 21:37 875K
20260426T18Z_MSC_RDPS_RelativeHumidity_IsbL-0750_RLatLon0.09_PT057H.grib2 2026-04-26 21:37 916K
20260426T18Z_MSC_RDPS_RelativeHumidity_IsbL-0800_RLatLon0.09_PT057H.grib2 2026-04-26 21:37 971K
20260426T18Z_MSC_RDPS_RelativeHumidity_IsbL-0850_RLatLon0.09_PT057H.grib2 2026-04-26 21:37 1.0M
20260426T18Z_MSC_RDPS_RelativeHumidity_IsbL-0875_RLatLon0.09_PT057H.grib2 2026-04-26 21:37 1.0M
20260426T18Z_MSC_RDPS_RelativeHumidity_IsbL-0900_RLatLon0.09_PT057H.grib2 2026-04-26 21:37 1.1M
20260426T18Z_MSC_RDPS_RelativeHumidity_IsbL-0925_RLatLon0.09_PT057H.grib2 2026-04-26 21:37 1.1M
20260426T18Z_MSC_RDPS_RelativeHumidity_IsbL-0950_RLatLon0.09_PT057H.grib2 2026-04-26 21:37 1.1M
20260426T18Z_MSC_RDPS_RelativeHumidity_IsbL-0970_RLatLon0.09_PT057H.grib2 2026-04-26 21:37 1.0M
20260426T18Z_MSC_RDPS_RelativeHumidity_IsbL-0985_RLatLon0.09_PT057H.grib2 2026-04-26 21:37 1.0M
20260426T18Z_MSC_RDPS_RelativeHumidity_IsbL-1000_RLatLon0.09_PT057H.grib2 2026-04-26 21:37 1.0M
20260426T18Z_MSC_RDPS_RelativeHumidity_IsbL-1015_RLatLon0.09_PT057H.grib2 2026-04-26 21:37 1.0M
20260426T18Z_MSC_RDPS_Runoff-Accum_Sfc_RLatLon0.09_PT057H.grib2 2026-04-26 21:37 54K
20260426T18Z_MSC_RDPS_SWEATIndex_Sfc_RLatLon0.09_PT057H.grib2 2026-04-26 21:37 2.4M
20260426T18Z_MSC_RDPS_SeeingIndex_EAtm_RLatLon0.09_PT057H.grib2 2026-04-26 21:37 1.0M
20260426T18Z_MSC_RDPS_SensibleHeatNetFlux_Sfc_RLatLon0.09_PT057H.grib2 2026-04-26 21:37 289K
20260426T18Z_MSC_RDPS_ShowalterIndex_IsbL-0500_RLatLon0.09_PT057H.grib2 2026-04-26 21:37 2.6M
20260426T18Z_MSC_RDPS_SkyTransparencyIndex_EAtm_RLatLon0.09_PT057H.grib2 2026-04-26 21:37 678K
20260426T18Z_MSC_RDPS_Snow-Accum1h_Sfc_RLatLon0.09_PT057H.grib2 2026-04-26 21:37 512K
20260426T18Z_MSC_RDPS_Snow-Accum3h_Sfc_RLatLon0.09_PT057H.grib2 2026-04-26 21:37 510K
20260426T18Z_MSC_RDPS_Snow-Accum_Sfc_RLatLon0.09_PT057H.grib2 2026-04-26 21:37 822K
20260426T18Z_MSC_RDPS_SnowDensity_Sfc_RLatLon0.09_PT057H.grib2 2026-04-26 21:37 186K
20260426T18Z_MSC_RDPS_SnowDepth_Sfc_RLatLon0.09_PT057H.grib2 2026-04-26 21:37 706K
20260426T18Z_MSC_RDPS_SoilTemp_DBS-0to10cm_RLatLon0.09_PT057H.grib2 2026-04-26 21:37 242K
20260426T18Z_MSC_RDPS_SoilTemp_Sfc_RLatLon0.09_PT057H.grib2 2026-04-26 21:37 279K
20260426T18Z_MSC_RDPS_SoilVolumetricIceContent_Sfc_RLatLon0.09_PT057H.grib2 2026-04-26 21:37 166K
20260426T18Z_MSC_RDPS_SoilVolumetricWaterContent_DBS-0to10cm_RLatLon0.09_PT057H.grib2 2026-04-26 21:37 264K
20260426T18Z_MSC_RDPS_SoilVolumetricWaterContent_DBS-0to1cm_RLatLon0.09_PT057H.grib2 2026-04-26 21:37 341K
20260426T18Z_MSC_RDPS_SpecificHumidity_AGL-120m_RLatLon0.09_PT057H.grib2 2026-04-26 21:37 477K
20260426T18Z_MSC_RDPS_SpecificHumidity_AGL-2m_RLatLon0.09_PT057H.grib2 2026-04-26 21:37 640K
20260426T18Z_MSC_RDPS_SpecificHumidity_AGL-40m_RLatLon0.09_PT057H.grib2 2026-04-26 21:37 482K
20260426T18Z_MSC_RDPS_SpecificHumidity_AGL-80m_RLatLon0.09_PT057H.grib2 2026-04-26 21:37 477K
20260426T18Z_MSC_RDPS_SpecificHumidity_IsbL-0001_RLatLon0.09_PT057H.grib2 2026-04-26 21:37 339K
20260426T18Z_MSC_RDPS_SpecificHumidity_IsbL-0005_RLatLon0.09_PT057H.grib2 2026-04-26 21:37 352K
20260426T18Z_MSC_RDPS_SpecificHumidity_IsbL-0010_RLatLon0.09_PT057H.grib2 2026-04-26 21:37 395K
20260426T18Z_MSC_RDPS_SpecificHumidity_IsbL-0020_RLatLon0.09_PT057H.grib2 2026-04-26 21:37 382K
20260426T18Z_MSC_RDPS_SpecificHumidity_IsbL-0030_RLatLon0.09_PT057H.grib2 2026-04-26 21:37 441K
20260426T18Z_MSC_RDPS_SpecificHumidity_IsbL-0050_RLatLon0.09_PT057H.grib2 2026-04-26 21:37 455K
20260426T18Z_MSC_RDPS_SpecificHumidity_IsbL-0100_RLatLon0.09_PT057H.grib2 2026-04-26 21:37 349K
20260426T18Z_MSC_RDPS_SpecificHumidity_IsbL-0150_RLatLon0.09_PT057H.grib2 2026-04-26 21:37 365K
20260426T18Z_MSC_RDPS_SpecificHumidity_IsbL-0175_RLatLon0.09_PT057H.grib2 2026-04-26 21:37 450K
20260426T18Z_MSC_RDPS_SpecificHumidity_IsbL-0200_RLatLon0.09_PT057H.grib2 2026-04-26 21:37 463K
20260426T18Z_MSC_RDPS_SpecificHumidity_IsbL-0225_RLatLon0.09_PT057H.grib2 2026-04-26 21:37 465K
20260426T18Z_MSC_RDPS_SpecificHumidity_IsbL-0250_RLatLon0.09_PT057H.grib2 2026-04-26 21:37 564K
20260426T18Z_MSC_RDPS_SpecificHumidity_IsbL-0275_RLatLon0.09_PT057H.grib2 2026-04-26 21:37 477K
20260426T18Z_MSC_RDPS_SpecificHumidity_IsbL-0300_RLatLon0.09_PT057H.grib2 2026-04-26 21:37 574K
20260426T18Z_MSC_RDPS_SpecificHumidity_IsbL-0350_RLatLon0.09_PT057H.grib2 2026-04-26 21:37 565K
20260426T18Z_MSC_RDPS_SpecificHumidity_IsbL-0400_RLatLon0.09_PT057H.grib2 2026-04-26 21:37 518K
20260426T18Z_MSC_RDPS_SpecificHumidity_IsbL-0450_RLatLon0.09_PT057H.grib2 2026-04-26 21:37 571K
20260426T18Z_MSC_RDPS_SpecificHumidity_IsbL-0500_RLatLon0.09_PT057H.grib2 2026-04-26 21:37 510K
20260426T18Z_MSC_RDPS_SpecificHumidity_IsbL-0550_RLatLon0.09_PT057H.grib2 2026-04-26 21:37 584K
20260426T18Z_MSC_RDPS_SpecificHumidity_IsbL-0600_RLatLon0.09_PT057H.grib2 2026-04-26 21:37 633K
20260426T18Z_MSC_RDPS_SpecificHumidity_IsbL-0650_RLatLon0.09_PT057H.grib2 2026-04-26 21:37 551K
20260426T18Z_MSC_RDPS_SpecificHumidity_IsbL-0700_RLatLon0.09_PT057H.grib2 2026-04-26 21:37 596K
20260426T18Z_MSC_RDPS_SpecificHumidity_IsbL-0750_RLatLon0.09_PT057H.grib2 2026-04-26 21:37 647K
20260426T18Z_MSC_RDPS_SpecificHumidity_IsbL-0800_RLatLon0.09_PT057H.grib2 2026-04-26 21:37 720K
20260426T18Z_MSC_RDPS_SpecificHumidity_IsbL-0850_RLatLon0.09_PT057H.grib2 2026-04-26 21:37 794K
20260426T18Z_MSC_RDPS_SpecificHumidity_IsbL-0875_RLatLon0.09_PT057H.grib2 2026-04-26 21:37 819K
20260426T18Z_MSC_RDPS_SpecificHumidity_IsbL-0900_RLatLon0.09_PT057H.grib2 2026-04-26 21:37 835K
20260426T18Z_MSC_RDPS_SpecificHumidity_IsbL-0925_RLatLon0.09_PT057H.grib2 2026-04-26 21:37 837K
20260426T18Z_MSC_RDPS_SpecificHumidity_IsbL-0950_RLatLon0.09_PT057H.grib2 2026-04-26 21:37 834K
20260426T18Z_MSC_RDPS_SpecificHumidity_IsbL-0970_RLatLon0.09_PT057H.grib2 2026-04-26 21:37 820K
20260426T18Z_MSC_RDPS_SpecificHumidity_IsbL-0985_RLatLon0.09_PT057H.grib2 2026-04-26 21:37 670K
20260426T18Z_MSC_RDPS_SpecificHumidity_IsbL-1000_RLatLon0.09_PT057H.grib2 2026-04-26 21:37 662K
20260426T18Z_MSC_RDPS_SpecificHumidity_IsbL-1015_RLatLon0.09_PT057H.grib2 2026-04-26 21:37 654K
20260426T18Z_MSC_RDPS_SpecificHumidity_Sfc_RLatLon0.09_PT057H.grib2 2026-04-26 21:37 307K
20260426T18Z_MSC_RDPS_StormRelativeHelicity_EtaL-10000_RLatLon0.09_PT057H.grib2 2026-04-26 21:37 1.1M
20260426T18Z_MSC_RDPS_StormSeverityIndex_EtaL-10000_RLatLon0.09_PT057H.grib2 2026-04-26 21:37 1.1M
20260426T18Z_MSC_RDPS_Thickness_IsbL-0850to0700_RLatLon0.09_PT057H.grib2 2026-04-26 21:37 174K
20260426T18Z_MSC_RDPS_Thickness_IsbL-1000to0500_RLatLon0.09_PT057H.grib2 2026-04-26 21:37 198K
20260426T18Z_MSC_RDPS_Thickness_IsbL-1000to0850_RLatLon0.09_PT057H.grib2 2026-04-26 21:37 183K
20260426T18Z_MSC_RDPS_TotalCloudCover_Sfc_RLatLon0.09_PT057H.grib2 2026-04-26 21:37 647K
20260426T18Z_MSC_RDPS_TotalTotalsIndex_Sfc_RLatLon0.09_PT057H.grib2 2026-04-26 21:37 2.4M
20260426T18Z_MSC_RDPS_UVIndex-ClearSky_Sfc_RLatLon0.09_PT057H.grib2 2026-04-26 21:37 94K
20260426T18Z_MSC_RDPS_UVIndex_Sfc_RLatLon0.09_PT057H.grib2 2026-04-26 21:37 189K
20260426T18Z_MSC_RDPS_UpwardLongwaveRadiationFlux_NTAtm_RLatLon0.09_PT057H.grib2 2026-04-26 21:37 491K
20260426T18Z_MSC_RDPS_UpwardShortwaveRadiationFlux_NTAtm_RLatLon0.09_PT057H.grib2 2026-04-26 21:37 190K
20260426T18Z_MSC_RDPS_VerticalVelocity_IsbL-0250_RLatLon0.09_PT057H.grib2 2026-04-26 21:37 437K
20260426T18Z_MSC_RDPS_VerticalVelocity_IsbL-0500_RLatLon0.09_PT057H.grib2 2026-04-26 21:37 547K
20260426T18Z_MSC_RDPS_VerticalVelocity_IsbL-0700_RLatLon0.09_PT057H.grib2 2026-04-26 21:37 591K
20260426T18Z_MSC_RDPS_VerticalVelocity_IsbL-0850_RLatLon0.09_PT057H.grib2 2026-04-26 21:37 700K
20260426T18Z_MSC_RDPS_VerticalWindShear_EtaL-6500_RLatLon0.09_PT057H.grib2 2026-04-26 21:37 1.2M
20260426T18Z_MSC_RDPS_WindChill_Sfc_RLatLon0.09_PT057H.grib2 2026-04-26 21:37 1.1M
20260426T18Z_MSC_RDPS_WindDir_AGL-10m_RLatLon0.09_PT057H.grib2 2026-04-26 21:37 965K
20260426T18Z_MSC_RDPS_WindDir_AGL-120m_RLatLon0.09_PT057H.grib2 2026-04-26 21:37 604K
20260426T18Z_MSC_RDPS_WindDir_AGL-40m_RLatLon0.09_PT057H.grib2 2026-04-26 21:37 636K
20260426T18Z_MSC_RDPS_WindDir_AGL-80m_RLatLon0.09_PT057H.grib2 2026-04-26 21:37 616K
20260426T18Z_MSC_RDPS_WindDir_IsbL-0001_RLatLon0.09_PT057H.grib2 2026-04-26 21:37 321K
20260426T18Z_MSC_RDPS_WindDir_IsbL-0005_RLatLon0.09_PT057H.grib2 2026-04-26 21:37 369K
20260426T18Z_MSC_RDPS_WindDir_IsbL-0010_RLatLon0.09_PT057H.grib2 2026-04-26 21:37 394K
20260426T18Z_MSC_RDPS_WindDir_IsbL-0020_RLatLon0.09_PT057H.grib2 2026-04-26 21:37 424K
20260426T18Z_MSC_RDPS_WindDir_IsbL-0030_RLatLon0.09_PT057H.grib2 2026-04-26 21:37 422K
20260426T18Z_MSC_RDPS_WindDir_IsbL-0050_RLatLon0.09_PT057H.grib2 2026-04-26 21:37 421K
20260426T18Z_MSC_RDPS_WindDir_IsbL-0100_RLatLon0.09_PT057H.grib2 2026-04-26 21:37 421K
20260426T18Z_MSC_RDPS_WindDir_IsbL-0150_RLatLon0.09_PT057H.grib2 2026-04-26 21:37 416K
20260426T18Z_MSC_RDPS_WindDir_IsbL-0175_RLatLon0.09_PT057H.grib2 2026-04-26 21:37 436K
20260426T18Z_MSC_RDPS_WindDir_IsbL-0200_RLatLon0.09_PT057H.grib2 2026-04-26 21:37 448K
20260426T18Z_MSC_RDPS_WindDir_IsbL-0225_RLatLon0.09_PT057H.grib2 2026-04-26 21:37 453K
20260426T18Z_MSC_RDPS_WindDir_IsbL-0250_RLatLon0.09_PT057H.grib2 2026-04-26 21:37 454K
20260426T18Z_MSC_RDPS_WindDir_IsbL-0275_RLatLon0.09_PT057H.grib2 2026-04-26 21:37 474K
20260426T18Z_MSC_RDPS_WindDir_IsbL-0300_RLatLon0.09_PT057H.grib2 2026-04-26 21:37 470K
20260426T18Z_MSC_RDPS_WindDir_IsbL-0350_RLatLon0.09_PT057H.grib2 2026-04-26 21:37 491K
20260426T18Z_MSC_RDPS_WindDir_IsbL-0400_RLatLon0.09_PT057H.grib2 2026-04-26 21:37 511K
20260426T18Z_MSC_RDPS_WindDir_IsbL-0450_RLatLon0.09_PT057H.grib2 2026-04-26 21:37 524K
20260426T18Z_MSC_RDPS_WindDir_IsbL-0500_RLatLon0.09_PT057H.grib2 2026-04-26 21:37 541K
20260426T18Z_MSC_RDPS_WindDir_IsbL-0550_RLatLon0.09_PT057H.grib2 2026-04-26 21:37 560K
20260426T18Z_MSC_RDPS_WindDir_IsbL-0600_RLatLon0.09_PT057H.grib2 2026-04-26 21:37 588K
20260426T18Z_MSC_RDPS_WindDir_IsbL-0650_RLatLon0.09_PT057H.grib2 2026-04-26 21:37 628K
20260426T18Z_MSC_RDPS_WindDir_IsbL-0700_RLatLon0.09_PT057H.grib2 2026-04-26 21:37 668K
20260426T18Z_MSC_RDPS_WindDir_IsbL-0750_RLatLon0.09_PT057H.grib2 2026-04-26 21:37 714K
20260426T18Z_MSC_RDPS_WindDir_IsbL-0800_RLatLon0.09_PT057H.grib2 2026-04-26 21:37 779K
20260426T18Z_MSC_RDPS_WindDir_IsbL-0850_RLatLon0.09_PT057H.grib2 2026-04-26 21:37 854K
20260426T18Z_MSC_RDPS_WindDir_IsbL-0875_RLatLon0.09_PT057H.grib2 2026-04-26 21:37 883K
20260426T18Z_MSC_RDPS_WindDir_IsbL-0900_RLatLon0.09_PT057H.grib2 2026-04-26 21:37 901K
20260426T18Z_MSC_RDPS_WindDir_IsbL-0925_RLatLon0.09_PT057H.grib2 2026-04-26 21:37 910K
20260426T18Z_MSC_RDPS_WindDir_IsbL-0950_RLatLon0.09_PT057H.grib2 2026-04-26 21:37 912K
20260426T18Z_MSC_RDPS_WindDir_IsbL-0970_RLatLon0.09_PT057H.grib2 2026-04-26 21:37 920K
20260426T18Z_MSC_RDPS_WindDir_IsbL-0985_RLatLon0.09_PT057H.grib2 2026-04-26 21:37 928K
20260426T18Z_MSC_RDPS_WindDir_IsbL-1000_RLatLon0.09_PT057H.grib2 2026-04-26 21:37 942K
20260426T18Z_MSC_RDPS_WindDir_IsbL-1015_RLatLon0.09_PT057H.grib2 2026-04-26 21:37 958K
20260426T18Z_MSC_RDPS_WindGust-Max_AGL-10m_RLatLon0.09_PT057H.grib2 2026-04-26 21:37 1.0M
20260426T18Z_MSC_RDPS_WindGust-Min_AGL-10m_RLatLon0.09_PT057H.grib2 2026-04-26 21:37 963K
20260426T18Z_MSC_RDPS_WindGust_AGL-10m_RLatLon0.09_PT057H.grib2 2026-04-26 21:37 1.0M
20260426T18Z_MSC_RDPS_WindSpeed_AGL-10m_RLatLon0.09_PT057H.grib2 2026-04-26 21:37 829K
20260426T18Z_MSC_RDPS_WindSpeed_AGL-120m_RLatLon0.09_PT057H.grib2 2026-04-26 21:37 544K
20260426T18Z_MSC_RDPS_WindSpeed_AGL-40m_RLatLon0.09_PT057H.grib2 2026-04-26 21:37 536K
20260426T18Z_MSC_RDPS_WindSpeed_AGL-80m_RLatLon0.09_PT057H.grib2 2026-04-26 21:37 546K
20260426T18Z_MSC_RDPS_WindSpeed_IsbL-0001_RLatLon0.09_PT057H.grib2 2026-04-26 21:37 255K
20260426T18Z_MSC_RDPS_WindSpeed_IsbL-0005_RLatLon0.09_PT057H.grib2 2026-04-26 21:37 299K
20260426T18Z_MSC_RDPS_WindSpeed_IsbL-0010_RLatLon0.09_PT057H.grib2 2026-04-26 21:37 407K
20260426T18Z_MSC_RDPS_WindSpeed_IsbL-0020_RLatLon0.09_PT057H.grib2 2026-04-26 21:37 328K
20260426T18Z_MSC_RDPS_WindSpeed_IsbL-0030_RLatLon0.09_PT057H.grib2 2026-04-26 21:37 323K
20260426T18Z_MSC_RDPS_WindSpeed_IsbL-0050_RLatLon0.09_PT057H.grib2 2026-04-26 21:37 356K
20260426T18Z_MSC_RDPS_WindSpeed_IsbL-0100_RLatLon0.09_PT057H.grib2 2026-04-26 21:37 453K
20260426T18Z_MSC_RDPS_WindSpeed_IsbL-0150_RLatLon0.09_PT057H.grib2 2026-04-26 21:37 392K
20260426T18Z_MSC_RDPS_WindSpeed_IsbL-0175_RLatLon0.09_PT057H.grib2 2026-04-26 21:37 421K
20260426T18Z_MSC_RDPS_WindSpeed_IsbL-0200_RLatLon0.09_PT057H.grib2 2026-04-26 21:37 458K
20260426T18Z_MSC_RDPS_WindSpeed_IsbL-0225_RLatLon0.09_PT057H.grib2 2026-04-26 21:37 462K
20260426T18Z_MSC_RDPS_WindSpeed_IsbL-0250_RLatLon0.09_PT057H.grib2 2026-04-26 21:37 465K
20260426T18Z_MSC_RDPS_WindSpeed_IsbL-0275_RLatLon0.09_PT057H.grib2 2026-04-26 21:37 484K
20260426T18Z_MSC_RDPS_WindSpeed_IsbL-0300_RLatLon0.09_PT057H.grib2 2026-04-26 21:37 480K
20260426T18Z_MSC_RDPS_WindSpeed_IsbL-0350_RLatLon0.09_PT057H.grib2 2026-04-26 21:37 473K
20260426T18Z_MSC_RDPS_WindSpeed_IsbL-0400_RLatLon0.09_PT057H.grib2 2026-04-26 21:37 474K
20260426T18Z_MSC_RDPS_WindSpeed_IsbL-0450_RLatLon0.09_PT057H.grib2 2026-04-26 21:37 472K
20260426T18Z_MSC_RDPS_WindSpeed_IsbL-0500_RLatLon0.09_PT057H.grib2 2026-04-26 21:37 471K
20260426T18Z_MSC_RDPS_WindSpeed_IsbL-0550_RLatLon0.09_PT057H.grib2 2026-04-26 21:37 587K
20260426T18Z_MSC_RDPS_WindSpeed_IsbL-0600_RLatLon0.09_PT057H.grib2 2026-04-26 21:37 595K
20260426T18Z_MSC_RDPS_WindSpeed_IsbL-0650_RLatLon0.09_PT057H.grib2 2026-04-26 21:37 613K
20260426T18Z_MSC_RDPS_WindSpeed_IsbL-0700_RLatLon0.09_PT057H.grib2 2026-04-26 21:37 635K
20260426T18Z_MSC_RDPS_WindSpeed_IsbL-0750_RLatLon0.09_PT057H.grib2 2026-04-26 21:37 661K
20260426T18Z_MSC_RDPS_WindSpeed_IsbL-0800_RLatLon0.09_PT057H.grib2 2026-04-26 21:37 703K
20260426T18Z_MSC_RDPS_WindSpeed_IsbL-0850_RLatLon0.09_PT057H.grib2 2026-04-26 21:37 759K
20260426T18Z_MSC_RDPS_WindSpeed_IsbL-0875_RLatLon0.09_PT057H.grib2 2026-04-26 21:37 827K
20260426T18Z_MSC_RDPS_WindSpeed_IsbL-0900_RLatLon0.09_PT057H.grib2 2026-04-26 21:37 844K
20260426T18Z_MSC_RDPS_WindSpeed_IsbL-0925_RLatLon0.09_PT057H.grib2 2026-04-26 21:37 854K
20260426T18Z_MSC_RDPS_WindSpeed_IsbL-0950_RLatLon0.09_PT057H.grib2 2026-04-26 21:37 856K
20260426T18Z_MSC_RDPS_WindSpeed_IsbL-0970_RLatLon0.09_PT057H.grib2 2026-04-26 21:37 856K
20260426T18Z_MSC_RDPS_WindSpeed_IsbL-0985_RLatLon0.09_PT057H.grib2 2026-04-26 21:37 848K
20260426T18Z_MSC_RDPS_WindSpeed_IsbL-1000_RLatLon0.09_PT057H.grib2 2026-04-26 21:37 841K
20260426T18Z_MSC_RDPS_WindSpeed_IsbL-1015_RLatLon0.09_PT057H.grib2 2026-04-26 21:37 831K
20260426T18Z_MSC_RDPS_WindU_AGL-10m_RLatLon0.09_PT057H.grib2 2026-04-26 21:37 426K
20260426T18Z_MSC_RDPS_WindU_AGL-120m_RLatLon0.09_PT057H.grib2 2026-04-26 21:37 415K
20260426T18Z_MSC_RDPS_WindU_AGL-40m_RLatLon0.09_PT057H.grib2 2026-04-26 21:37 417K
20260426T18Z_MSC_RDPS_WindU_AGL-80m_RLatLon0.09_PT057H.grib2 2026-04-26 21:37 416K
20260426T18Z_MSC_RDPS_WindU_IsbL-0001_RLatLon0.09_PT057H.grib2 2026-04-26 21:37 295K
20260426T18Z_MSC_RDPS_WindU_IsbL-0005_RLatLon0.09_PT057H.grib2 2026-04-26 21:37 334K
20260426T18Z_MSC_RDPS_WindU_IsbL-0010_RLatLon0.09_PT057H.grib2 2026-04-26 21:37 302K
20260426T18Z_MSC_RDPS_WindU_IsbL-0020_RLatLon0.09_PT057H.grib2 2026-04-26 21:37 357K
20260426T18Z_MSC_RDPS_WindU_IsbL-0030_RLatLon0.09_PT057H.grib2 2026-04-26 21:37 354K
20260426T18Z_MSC_RDPS_WindU_IsbL-0050_RLatLon0.09_PT057H.grib2 2026-04-26 21:37 383K
20260426T18Z_MSC_RDPS_WindU_IsbL-0100_RLatLon0.09_PT057H.grib2 2026-04-26 21:37 347K
20260426T18Z_MSC_RDPS_WindU_IsbL-0150_RLatLon0.09_PT057H.grib2 2026-04-26 21:37 408K
20260426T18Z_MSC_RDPS_WindU_IsbL-0175_RLatLon0.09_PT057H.grib2 2026-04-26 21:37 433K
20260426T18Z_MSC_RDPS_WindU_IsbL-0200_RLatLon0.09_PT057H.grib2 2026-04-26 21:37 450K
20260426T18Z_MSC_RDPS_WindU_IsbL-0225_RLatLon0.09_PT057H.grib2 2026-04-26 21:37 354K
20260426T18Z_MSC_RDPS_WindU_IsbL-0250_RLatLon0.09_PT057H.grib2 2026-04-26 21:37 455K
20260426T18Z_MSC_RDPS_WindU_IsbL-0275_RLatLon0.09_PT057H.grib2 2026-04-26 21:37 370K
20260426T18Z_MSC_RDPS_WindU_IsbL-0300_RLatLon0.09_PT057H.grib2 2026-04-26 21:37 364K
20260426T18Z_MSC_RDPS_WindU_IsbL-0350_RLatLon0.09_PT057H.grib2 2026-04-26 21:37 372K
20260426T18Z_MSC_RDPS_WindU_IsbL-0400_RLatLon0.09_PT057H.grib2 2026-04-26 21:37 476K
20260426T18Z_MSC_RDPS_WindU_IsbL-0450_RLatLon0.09_PT057H.grib2 2026-04-26 21:37 475K
20260426T18Z_MSC_RDPS_WindU_IsbL-0500_RLatLon0.09_PT057H.grib2 2026-04-26 21:37 476K
20260426T18Z_MSC_RDPS_WindU_IsbL-0550_RLatLon0.09_PT057H.grib2 2026-04-26 21:37 476K
20260426T18Z_MSC_RDPS_WindU_IsbL-0600_RLatLon0.09_PT057H.grib2 2026-04-26 21:37 467K
20260426T18Z_MSC_RDPS_WindU_IsbL-0650_RLatLon0.09_PT057H.grib2 2026-04-26 21:37 483K
20260426T18Z_MSC_RDPS_WindU_IsbL-0700_RLatLon0.09_PT057H.grib2 2026-04-26 21:37 503K
20260426T18Z_MSC_RDPS_WindU_IsbL-0750_RLatLon0.09_PT057H.grib2 2026-04-26 21:37 527K
20260426T18Z_MSC_RDPS_WindU_IsbL-0800_RLatLon0.09_PT057H.grib2 2026-04-26 21:37 564K
20260426T18Z_MSC_RDPS_WindU_IsbL-0850_RLatLon0.09_PT057H.grib2 2026-04-26 21:37 615K
20260426T18Z_MSC_RDPS_WindU_IsbL-0875_RLatLon0.09_PT057H.grib2 2026-04-26 21:37 643K
20260426T18Z_MSC_RDPS_WindU_IsbL-0900_RLatLon0.09_PT057H.grib2 2026-04-26 21:37 654K
20260426T18Z_MSC_RDPS_WindU_IsbL-0925_RLatLon0.09_PT057H.grib2 2026-04-26 21:37 653K
20260426T18Z_MSC_RDPS_WindU_IsbL-0950_RLatLon0.09_PT057H.grib2 2026-04-26 21:37 650K
20260426T18Z_MSC_RDPS_WindU_IsbL-0970_RLatLon0.09_PT057H.grib2 2026-04-26 21:37 648K
20260426T18Z_MSC_RDPS_WindU_IsbL-0985_RLatLon0.09_PT057H.grib2 2026-04-26 21:37 644K
20260426T18Z_MSC_RDPS_WindU_IsbL-1000_RLatLon0.09_PT057H.grib2 2026-04-26 21:37 640K
20260426T18Z_MSC_RDPS_WindU_IsbL-1015_RLatLon0.09_PT057H.grib2 2026-04-26 21:37 769K
20260426T18Z_MSC_RDPS_WindV_AGL-10m_RLatLon0.09_PT057H.grib2 2026-04-26 21:37 426K
20260426T18Z_MSC_RDPS_WindV_AGL-120m_RLatLon0.09_PT057H.grib2 2026-04-26 21:37 529K
20260426T18Z_MSC_RDPS_WindV_AGL-40m_RLatLon0.09_PT057H.grib2 2026-04-26 21:37 532K
20260426T18Z_MSC_RDPS_WindV_AGL-80m_RLatLon0.09_PT057H.grib2 2026-04-26 21:37 530K
20260426T18Z_MSC_RDPS_WindV_IsbL-0001_RLatLon0.09_PT057H.grib2 2026-04-26 21:37 246K
20260426T18Z_MSC_RDPS_WindV_IsbL-0005_RLatLon0.09_PT057H.grib2 2026-04-26 21:37 290K
20260426T18Z_MSC_RDPS_WindV_IsbL-0010_RLatLon0.09_PT057H.grib2 2026-04-26 21:37 303K
20260426T18Z_MSC_RDPS_WindV_IsbL-0020_RLatLon0.09_PT057H.grib2 2026-04-26 21:37 320K
20260426T18Z_MSC_RDPS_WindV_IsbL-0030_RLatLon0.09_PT057H.grib2 2026-04-26 21:37 356K
20260426T18Z_MSC_RDPS_WindV_IsbL-0050_RLatLon0.09_PT057H.grib2 2026-04-26 21:37 348K
20260426T18Z_MSC_RDPS_WindV_IsbL-0100_RLatLon0.09_PT057H.grib2 2026-04-26 21:37 437K
20260426T18Z_MSC_RDPS_WindV_IsbL-0150_RLatLon0.09_PT057H.grib2 2026-04-26 21:37 405K
20260426T18Z_MSC_RDPS_WindV_IsbL-0175_RLatLon0.09_PT057H.grib2 2026-04-26 21:37 432K
20260426T18Z_MSC_RDPS_WindV_IsbL-0200_RLatLon0.09_PT057H.grib2 2026-04-26 21:37 348K
20260426T18Z_MSC_RDPS_WindV_IsbL-0225_RLatLon0.09_PT057H.grib2 2026-04-26 21:37 350K
20260426T18Z_MSC_RDPS_WindV_IsbL-0250_RLatLon0.09_PT057H.grib2 2026-04-26 21:37 377K
20260426T18Z_MSC_RDPS_WindV_IsbL-0275_RLatLon0.09_PT057H.grib2 2026-04-26 21:37 390K
20260426T18Z_MSC_RDPS_WindV_IsbL-0300_RLatLon0.09_PT057H.grib2 2026-04-26 21:37 387K
20260426T18Z_MSC_RDPS_WindV_IsbL-0350_RLatLon0.09_PT057H.grib2 2026-04-26 21:37 370K
20260426T18Z_MSC_RDPS_WindV_IsbL-0400_RLatLon0.09_PT057H.grib2 2026-04-26 21:37 372K
20260426T18Z_MSC_RDPS_WindV_IsbL-0450_RLatLon0.09_PT057H.grib2 2026-04-26 21:37 370K
20260426T18Z_MSC_RDPS_WindV_IsbL-0500_RLatLon0.09_PT057H.grib2 2026-04-26 21:37 474K
20260426T18Z_MSC_RDPS_WindV_IsbL-0550_RLatLon0.09_PT057H.grib2 2026-04-26 21:37 474K
20260426T18Z_MSC_RDPS_WindV_IsbL-0600_RLatLon0.09_PT057H.grib2 2026-04-26 21:37 481K
20260426T18Z_MSC_RDPS_WindV_IsbL-0650_RLatLon0.09_PT057H.grib2 2026-04-26 21:37 496K
20260426T18Z_MSC_RDPS_WindV_IsbL-0700_RLatLon0.09_PT057H.grib2 2026-04-26 21:37 515K
20260426T18Z_MSC_RDPS_WindV_IsbL-0750_RLatLon0.09_PT057H.grib2 2026-04-26 21:37 537K
20260426T18Z_MSC_RDPS_WindV_IsbL-0800_RLatLon0.09_PT057H.grib2 2026-04-26 21:37 571K
20260426T18Z_MSC_RDPS_WindV_IsbL-0850_RLatLon0.09_PT057H.grib2 2026-04-26 21:37 620K
20260426T18Z_MSC_RDPS_WindV_IsbL-0875_RLatLon0.09_PT057H.grib2 2026-04-26 21:37 639K
20260426T18Z_MSC_RDPS_WindV_IsbL-0900_RLatLon0.09_PT057H.grib2 2026-04-26 21:37 650K
20260426T18Z_MSC_RDPS_WindV_IsbL-0925_RLatLon0.09_PT057H.grib2 2026-04-26 21:37 651K
20260426T18Z_MSC_RDPS_WindV_IsbL-0950_RLatLon0.09_PT057H.grib2 2026-04-26 21:37 650K
20260426T18Z_MSC_RDPS_WindV_IsbL-0970_RLatLon0.09_PT057H.grib2 2026-04-26 21:37 649K
20260426T18Z_MSC_RDPS_WindV_IsbL-0985_RLatLon0.09_PT057H.grib2 2026-04-26 21:37 783K
20260426T18Z_MSC_RDPS_WindV_IsbL-1000_RLatLon0.09_PT057H.grib2 2026-04-26 21:37 776K
20260426T18Z_MSC_RDPS_WindV_IsbL-1015_RLatLon0.09_PT057H.grib2 2026-04-26 21:37 816K